CDT,Max TemperatureF,Mean TemperatureF,Min TemperatureF,Max Dew PointF,MeanDew PointF,Min DewpointF,Max Humidity, Mean Humidity, Min Humidity, Max Sea Level PressureIn, Mean Sea Level PressureIn, Min Sea Level PressureIn, Max VisibilityMiles, Mean VisibilityMiles, Min VisibilityMiles, Max Wind SpeedMPH, Mean Wind SpeedMPH, Max Gust SpeedMPH,PrecipitationIn, CloudCover, Events, WindDirDegrees
2012-10-1,68,58,50,48,37,28,69,48,25,30.04,30.00,29.89,10,10,10,23,12,29,0.00,1,,340
2012-10-2,72,55,39,33,30,25,77,39,18,30.01,29.90,29.81,10,10,10,18,7,26,0.00,0,,181
2012-10-3,77,61,45,37,30,26,56,31,16,29.90,29.84,29.74,10,10,10,16,8,,0.00,1,,123
2012-10-4,61,48,35,42,33,28,93,77,42,30.21,30.00,29.65,10,9,2,33,20,46,0.01,7,Rain,294
2012-10-5,39,34,28,29,26,24,86,72,56,30.26,30.20,30.14,10,10,9,26,19,36,0.00,7,,305
2012-10-6,43,35,27,30,25,21,89,69,42,30.38,30.29,30.20,10,10,7,14,11,20,0.00,6,,328
2012-10-7,55,40,26,22,19,16,75,48,23,30.25,30.04,29.84,10,10,10,20,11,28,0.00,1,,216
2012-10-8,59,48,39,41,30,20,79,56,41,29.82,29.69,29.57,10,10,10,20,10,28,0.00,4,Rain,230
2012-10-9,43,38,34,34,28,23,76,64,55,30.04,29.88,29.74,10,10,10,25,13,33,0.00,6,,296
2012-10-10,48,38,27,31,25,22,89,61,37,30.10,30.02,29.86,10,10,10,14,9,23,0.00,4,,265
2012-10-11,45,36,28,34,27,18,86,66,38,30.45,30.19,29.88,10,10,10,18,11,24,0.01,2,Rain,347
2012-10-12,51,38,24,23,18,13,81,48,22,30.46,30.26,29.93,10,10,10,22,8,32,0.00,2,,156
2012-10-13,61,52,44,44,39,18,87,66,28,29.91,29.77,29.69,10,10,9,22,12,30,0.00,4,,192
2012-10-14,55,47,39,41,37,32,96,78,45,29.96,29.86,29.79,10,8,1,15,8,17,0.00,5,,340
2012-10-15,60,45,30,38,34,28,96,68,41,29.97,29.87,29.65,10,9,1,16,6,,0.00,2,,185
2012-10-16,71,60,51,45,42,39,69,53,38,29.64,29.49,29.34,10,10,10,14,7,20,0.00,3,,191
2012-10-17,54,48,42,50,45,39,100,89,72,29.32,29.21,29.11,10,7,2,26,11,38,0.27,8,Rain,289
2012-10-18,46,44,41,45,43,39,100,94,87,29.45,29.26,29.14,10,5,1,21,9,28,0.29,8,Rain,321
2012-10-19,45,44,42,43,41,39,93,90,86,29.78,29.67,29.48,10,9,5,22,14,29,0.09,8,Rain,336
2012-10-20,50,44,41,42,40,39,100,89,74,29.80,29.76,29.72,10,8,0,15,4,,0.00,6,Fog,193
2012-10-21,55,48,42,45,43,40,93,81,66,29.99,29.84,29.77,10,9,7,13,8,,0.00,2,,72
2012-10-22,60,53,46,46,44,43,93,75,55,30.04,29.97,29.89,10,10,9,17,13,24,0.00,6,,65
2012-10-23,59,52,48,56,52,44,100,95,83,29.85,29.75,29.68,10,3,0,15,10,,0.04,8,Fog-Rain-Thunderstorm,136
2012-10-24,54,47,39,54,43,34,97,85,71,29.96,29.88,29.79,10,9,5,17,10,23,0.00,7,,327
2012-10-25,37,36,33,34,29,23,92,80,61,30.18,29.96,29.86,10,7,1,23,17,34,0.06,8,Snow,326
2012-10-26,39,34,32,25,20,17,72,58,46,30.37,30.33,30.21,10,10,10,21,16,28,0.00,8,,281
2012-10-27,39,31,23,24,22,19,88,65,45,30.38,30.34,30.30,10,10,10,10,5,,0.00,3,,208
2012-10-28,43,38,33,34,29,23,89,75,60,30.32,30.27,30.22,10,8,2,14,9,17,0.00,8,Snow,174
2012-10-29,50,42,34,28,25,22,79,59,35,30.27,30.25,30.21,10,10,10,18,11,29,0.00,4,,133
2012-10-30,46,39,32,30,26,22,76,63,46,30.25,30.20,30.13,10,10,10,12,8,,0.00,6,,98
2012-10-31,52,41,30,36,29,25,82,63,41,30.12,30.05,29.98,10,10,10,14,4,,0.00,6,,258